CAPE
2377 2299 2167 2176 2228 2212 2348 2531 2547 2592 2785 2718 2903 3012 3207 3492 3550 3612 3546 3476 3477 3386 3082 2600 2476 2453 2511 2670 2322 2238 2220 2220 1696 1293 1076 894 800 724 749 642 628 584
2374 2306 2213 2192 2245 2382 2542 2531 2566 2585 2804 2884 2863 2994 3333 3477 3629 3450 3530 3536 3384 3118 2884 2496 2458 2531 2697 2570 2224 2242 2284 2299 1929 1085 999 960 840 744 598 740 542 571
2400 2345 2264 2193 2149 2196 1944 2249 2467 2596 2594 2637 2754 3007 3176 3214 3332 3428 3479 3529 3349 3106 2840 2629 2542 2572 2617 2600 2206 2194 2288 2268 2068 1182 909 959 843 740 702 464 578 763
2437 2400 2269 2083 2099 2120 2129 2302 2435 2484 2360 2509 2589 2622 2735 2889 3085 3359 3416 3362 3384 3248 2886 2536 2641 2552 2585 2576 2224 2184 2284 2276 2118 1514 963 1021 966 760 672 654 539 652
2485 2496 2373 2283 2262 2333 2398 2399 2194 2233 2218 2320 2450 2476 2726 2923 3057 3050 3276 3404 3336 3202 2893 2704 2694 2555 2626 2505 2234 2131 2232 2263 2117 1744 1136 1040 989 799 688 667 666 551
2527 2560 2550 2509 2467 2528 2442 2326 2257 2180 2220 2164 2434 2383 2542 2749 2818 2818 3078 3137 3084 2864 2687 2734 2817 2570 2360 2498 2199 2043 2136 2153 2043 1832 1266 1035 893 689 589 710 663 601
2517 2544 2536 2467 2475 2506 2473 2369 2361 2328 2223 2227 2421 2347 2376 2524 2704 2805 3028 3094 2923 2893 2776 2898 2970 2733 2703 2474 2244 2064 2004 2070 1990 1838 1565 1017 1054 975 646 698 674 679
2348 2331 2412 2402 2387 2409 2425 2406 2427 2417 2355 2364 2399 2462 2424 2440 2669 2769 2965 3029 2930 3057 3052 3287 3388 3189 2722 2443 2313 2158 1923 2010 2000 1912 1698 1323 1086 1160 951 689 744 733
2329 2393 2392 2432 2350 2343 2312 2261 2337 2390 2307 2363 2281 2238 2411 2426 2637 2662 2971 3095 3018 3138 3271 3322 3379 3220 2901 2534 2400 2251 2084 1915 1954 1867 1696 1431 1148 1139 1107 937 816 801
2486 2437 2336 2235 2211 2254 2233 2193 2173 2294 2341 2285 2217 2162 2312 2461 2561 2723 2995 3196 3095 3092 3226 3232 3267 3128 2963 2605 2444 2308 2190 1992 1832 1762 1603 1414 1241 1185 1105 1023 895 898
2454 2397 2336 2274 2178 2170 2198 2140 2106 2164 2218 2186 2182 2168 2246 2411 2511 2684 2939 3129 2997 3016 3026 3161 3152 3074 2992 2638 2410 2285 2212 2077 1870 1718 1556 1368 1362 1310 1142 1100 957 956
2487 2370 2292 2294 2224 2191 2183 2161 2133 2181 2249 2222 2155 2172 2215 2218 2417 2532 2658 2912 2964 2963 3090 3131 3125 3056 2978 2774 2390 2176 2077 2028 1944 1736 1603 1492 1424 1368 1252 1126 1016 954
2517 2430 2364 2319 2410 2316 2294 2254 2187 2176 2212 2267 2198 2158 2136 2154 2208 2409 2505 2683 2870 2907 2951 3081 3091 2995 2970 2845 2580 2258 2052 1960 1849 1702 1682 1572 1387 1225 1176 1064 958 932
2657 2594 2453 2486 2502 2555 2487 2372 2302 2281 2328 2377 2372 2246 2135 2137 2150 2275 2451 2485 2658 2798 2874 2952 3053 2957 2938 2890 2678 2406 2095 1964 1842 1705 1665 1603 1531 1366 1195 1062 1002 915
2645 2704 2630 2640 2654 2743 2611 2520 2469 2480 2479 2485 2525 2384 2245 2199 2214 2217 2371 2466 2465 2647 2729 2758 2848 2830 2796 2774 2672 2492 2257 2006 1911 1803 1654 1613 1566 1485 1327 1169 1102 1058
2808 2793 2824 2810 2884 2860 2862 2732 2623 2609 2581 2594 2636 2526 2462 2425 2372 2342 2326 2430 2454 2550 2621 2674 2648 2682 2338 1988 2033 2434 2322 2088 1977 1878 1748 1597 1557 1533 1420 1261 1178 1181
2733 2769 2774 2829 2802 2785 2843 2799 2796 2826 2789 2740 2674 2635 2548 2604 2569 2459 2373 2362 2412 2470 2551 2533 2554 2533 1933 1732 1633 1634 2114 2221 2099 1997 1826 1690 1540 1560 1500 1356 1247 1255
2635 2722 2770 2818 2843 2852 2913 2909 2852 2807 2842 2830 2750 2754 2757 2699 2673 2614 2626 2438 2400 2436 2466 2511 2534 2081 1798 1643 1550 1509 1531 2095 2160 2084 1868 1729 1569 1563 1518 1405 1322 1325
2840 2864 2836 2808 2910 2893 2870 2896 2933 2966 2931 2860 2787 2828 2855 2880 2813 2672 2663 2618 2487 2532 2444 2458 2483 2016 1720 1601 1519 1482 1465 1570 2113 2114 1953 1766 1575 1575 1508 1534 1442 1350
3014 2909 2862 2893 2920 2858 2908 2924 2941 2892 2886 2873 2834 2856 2815 2832 2769 2772 2787 2740 2665 2646 2621 2552 2550 2122 1747 1593 1512 1470 1462 1460 1916 2100 2018 1867 1664 1599 1527 1616 1603 1415
3034 3000 3056 3057 3026 2945 2896 2877 2888 2896 2900 2865 2818 2792 2733 2739 2707 2738 2716 2611 2657 2537 2599 2602 2537 2114 1860 1682 1578 1508 1485 1480 1627 2025 2056 1938 1814 1779 1787 1783 1708 1467
3026 3073 3112 3151 3104 2981 2903 2842 2852 2912 2934 2909 2793 2676 2652 2559 2816 2782 2701 2563 2640 2348 2388 2550 2603 2077 1894 1776 1698 1628 1568 1539 1549 1900 2072 1944 1902 1851 1885 1898 1647 1549
2956 3028 3128 3115 3134 3064 2997 2934 2982 2999 3002 2895 2802 2767 2793 2838 2812 2668 2756 2782 2642 2432 2468 2434 2346 2328 2022 1875 1805 1743 1678 1658 1634 1705 1977 1820 1961 1956 1894 1763 1633 1642
2982 3007 3064 3133 3162 3158 3114 3034 3028 3035 2998 2972 2910 2778 2708 2654 2691 2690 2704 2547 2746 2679 2594 2501 2674 2851 2170 1995 1876 1848 1778 1739 1695 1720 1913 1817 1857 1936 1691 1710 1689 1704
3024 2892 3025 3117 3190 3229 3151 3146 3157 3191 3152 3133 2887 2827 2828 2950 2750 2748 2922 2975 2745 2801 2527 2508 2752 2456 2240 2142 2006 1952 1895 1832 1771 1717 1750 1799 1793 1889 1717 1754 1753 1796
2826 3168 3286 3166 3252 3289 3280 3270 3321 3230 3184 3067 2894 2805 2831 2821 2808 2835 2988 2978 2944 2911 2766 2468 2687 2737 2307 2201 2102 2019 1974 1949 1880 1824 1800 1826 1903 1775 1752 1698 1804 1865
Wind_Speed
9 9 9 10 9 9 11 12 10 9 9 10 9 9 9 9 9 9 10 12 14 13 10 8 8 7 9 10 9 9 10 11 11 13 16 17 17 19 19 19 18 16
9 9 9 9 10 11 11 12 12 10 10 11 10 10 10 10 9 9 10 11 14 14 11 9 9 8 10 11 11 10 10 10 12 12 15 17 17 18 19 21 20 18
11 11 10 9 9 10 9 11 12 11 11 10 11 11 10 10 9 10 10 11 12 14 13 10 9 9 11 12 12 11 10 11 12 14 15 17 17 18 18 19 18 19
13 12 11 10 9 10 12 12 13 13 12 12 11 11 11 10 10 11 11 11 11 13 14 12 11 10 13 14 13 11 11 11 12 14 15 15 16 18 18 18 18 17
15 14 14 13 12 13 14 13 13 13 12 12 13 14 13 12 12 11 11 12 12 13 14 13 12 12 15 15 14 11 12 11 13 15 15 16 16 17 18 18 18 19
16 15 16 16 15 16 16 14 14 14 14 14 15 15 14 14 13 11 11 12 13 13 14 14 13 12 14 16 14 11 12 12 13 16 16 16 16 17 16 18 19 20
15 15 15 15 15 15 16 15 16 16 16 15 17 16 16 15 14 13 12 12 13 14 14 15 15 14 17 17 14 12 12 13 14 17 17 16 16 17 17 18 19 19
14 14 14 14 14 14 15 16 17 18 18 19 17 18 18 17 16 15 14 14 13 14 16 16 16 17 18 17 15 13 12 12 13 17 17 17 16 17 18 17 18 19
14 14 15 15 15 14 13 15 17 19 20 19 18 18 18 18 17 16 17 16 14 15 17 16 16 16 17 18 15 14 13 13 14 16 17 17 18 18 19 20 20 20
16 15 17 16 15 13 13 13 15 18 20 19 19 19 19 19 18 18 18 17 15 15 16 17 17 16 17 17 16 14 13 13 13 15 16 16 18 19 21 22 23 23
17 16 16 17 16 13 14 13 13 14 17 18 19 19 19 20 20 20 19 18 15 14 15 16 17 17 18 17 16 14 13 12 13 14 15 16 17 19 22 25 25 25
17 16 17 17 17 16 16 15 14 13 14 16 17 17 18 18 19 19 18 17 15 14 16 17 18 18 18 18 17 15 13 11 12 13 15 16 17 19 23 25 25 26
17 16 15 16 17 17 16 16 16 16 15 15 16 16 16 16 16 16 16 16 15 15 16 18 19 19 19 19 19 17 14 13 12 13 15 16 17 20 23 25 25 26
16 15 15 15 16 16 17 18 19 19 18 16 17 18 18 17 17 17 16 15 15 15 16 18 19 18 18 19 19 18 16 14 13 13 16 17 17 20 23 25 26 27
15 14 14 15 16 17 18 18 19 19 20 19 19 19 17 17 17 17 17 16 15 16 17 18 18 18 18 20 21 20 18 15 14 14 16 17 17 20 23 25 25 26
16 16 16 16 17 18 18 19 19 20 20 21 20 21 20 19 18 18 17 17 16 16 16 17 17 17 18 22 22 22 21 18 16 15 16 17 18 19 21 23 25 25
17 15 16 16 17 17 18 19 20 20 20 20 21 21 22 21 21 20 18 16 16 15 15 15 15 15 21 23 23 24 24 21 19 18 17 18 19 20 20 22 23 26
16 16 17 17 18 19 20 21 20 20 20 21 21 22 21 20 20 20 19 17 15 14 13 13 13 16 24 25 25 26 25 23 21 19 18 18 19 20 20 22 25 27
18 18 17 17 18 20 21 22 22 21 21 22 22 22 21 20 20 21 20 19 17 15 13 12 12 20 26 27 27 27 27 25 22 21 19 19 21 21 21 24 28 29
19 19 19 18 19 21 22 23 23 21 21 22 22 22 21 20 20 21 19 19 19 17 14 12 11 21 28 29 29 29 29 28 24 23 21 20 22 22 22 26 30 31
19 19 19 20 21 22 22 22 23 23 23 23 24 25 23 21 22 22 20 20 19 18 16 14 11 22 28 29 30 30 31 31 27 25 23 22 22 23 24 27 31 31
21 21 21 21 22 23 22 22 23 24 24 24 25 25 24 22 23 22 22 22 21 19 17 15 13 23 26 28 30 30 33 32 29 27 23 23 24 23 24 27 29 30
26 25 23 21 23 24 22 22 22 22 24 26 25 26 27 28 26 24 23 24 23 20 19 16 13 26 28 30 31 33 36 32 31 29 23 22 24 24 25 28 30 31
31 30 26 22 23 22 22 22 23 23 24 27 26 26 26 25 26 25 23 22 26 24 25 21 19 30 33 33 34 37 36 33 33 31 25 23 23 24 24 27 28 34
33 33 28 23 21 21 22 23 25 26 28 31 30 29 28 30 31 29 28 29 28 26 30 29 25 31 40 37 37 39 38 36 36 33 27 25 25 24 24 25 28 33
32 34 31 26 24 24 25 25 28 30 31 33 33 33 33 34 34 33 32 33 33 31 33 31 30 33 41 42 41 42 42 39 36 34 29 28 28 27 28 28 30 31
Wind_Direction
285 285 295 292 288 274 272 278 278 276 269 271 274 278 289 293 298 309 320 323 329 328 320 321 324 326 326 312 318 334 351 4 8 4 7 10 14 16 17 18 18 22
299 293 283 286 281 277 272 276 279 278 273 274 275 278 282 287 294 297 309 320 327 333 329 322 324 327 318 306 314 331 343 355 5 358 6 10 13 15 18 16 17 15
293 293 299 305 298 301 295 275 274 274 269 273 275 276 279 284 287 292 300 310 320 331 330 326 323 322 316 305 308 323 339 348 358 359 4 10 13 14 18 19 17 11
293 295 294 302 294 291 287 280 279 272 271 268 277 279 279 280 287 295 297 304 312 321 325 328 320 317 313 305 306 318 336 343 353 353 0 6 12 16 18 18 20 14
292 288 286 284 283 283 283 287 292 283 282 275 271 276 279 282 285 291 293 296 303 313 318 326 320 315 305 300 306 315 327 337 345 350 357 4 9 13 19 17 19 19
294 292 290 285 282 280 281 288 288 285 284 279 277 277 281 287 287 293 295 299 301 310 318 322 318 314 306 300 301 313 323 334 342 348 355 1 7 12 16 15 17 18
304 300 301 290 287 283 281 282 282 283 282 279 274 279 282 288 292 296 295 295 299 303 313 313 312 308 295 296 299 309 320 332 338 345 351 354 360 8 12 11 13 14
310 305 305 301 302 293 288 281 279 279 278 275 280 282 284 290 295 294 293 294 296 301 305 309 305 297 294 294 298 306 321 322 337 345 348 350 353 4 4 2 2 6
313 315 315 320 322 310 305 294 282 278 277 280 282 279 282 287 292 295 293 293 293 295 300 302 301 295 291 294 297 305 318 326 337 344 347 347 351 358 356 351 352 354
320 324 331 334 334 323 320 309 290 280 279 282 283 281 283 286 290 292 291 290 292 294 297 297 298 292 288 291 296 302 312 324 334 341 344 346 348 351 350 345 347 346
333 334 339 345 347 337 338 326 312 294 285 289 286 287 288 286 286 288 289 289 287 290 293 293 293 290 287 289 290 292 304 316 327 335 339 341 344 346 343 342 344 346
335 341 350 352 353 353 351 343 331 320 309 301 305 305 303 299 296 292 290 292 285 283 283 284 285 286 287 289 291 291 295 308 316 327 333 334 339 341 339 340 342 345
332 342 344 347 349 354 356 357 356 352 345 336 330 334 332 328 322 315 301 298 290 281 278 279 281 283 283 286 287 288 291 299 309 318 322 324 334 339 337 339 342 342
324 329 336 339 341 346 356 3 6 6 3 356 348 348 349 347 343 335 324 313 305 292 281 276 280 282 282 284 285 285 285 290 298 306 314 319 328 333 334 337 341 343
307 309 318 324 332 338 347 356 1 3 3 3 359 356 351 352 346 342 340 336 324 306 292 285 287 288 280 280 284 285 282 286 291 298 305 313 323 329 330 334 338 338
296 298 308 316 322 331 337 343 350 354 356 360 0 0 360 356 354 349 345 339 330 323 309 299 298 289 285 292 288 281 283 279 279 287 299 308 318 324 328 333 336 331
291 300 305 316 323 325 328 336 340 338 344 352 357 357 359 358 1 2 353 339 333 326 323 314 308 294 295 291 295 292 283 282 282 282 292 304 313 319 325 327 327 326
298 300 307 315 314 321 322 324 324 326 332 340 345 347 345 349 358 360 355 350 336 330 327 320 314 307 299 298 297 296 290 283 281 280 285 298 306 316 320 318 315 320
294 299 306 307 312 313 307 306 312 318 323 327 334 332 331 344 351 349 350 349 345 339 330 319 308 306 306 304 300 297 297 291 279 282 286 294 303 313 316 312 309 316
288 296 304 307 302 297 296 299 304 313 313 310 312 317 330 336 339 337 336 346 348 344 331 317 313 299 307 306 303 299 297 293 281 285 287 292 302 308 308 308 310 313
282 290 294 293 293 294 293 295 299 299 303 303 305 312 320 327 330 328 333 341 342 348 338 328 320 299 304 305 303 299 295 290 282 281 284 289 294 301 303 304 307 312
274 273 275 282 288 289 291 292 291 294 298 295 295 299 309 314 307 310 319 332 331 338 336 336 319 299 299 299 298 294 289 277 280 283 286 288 288 293 296 298 303 309
266 266 266 275 282 286 290 292 290 290 287 284 290 293 295 297 298 305 306 308 313 322 322 319 320 293 298 295 292 289 279 273 277 279 288 289 284 288 292 295 299 306
264 262 261 266 274 283 288 286 284 279 281 279 283 283 284 288 289 287 290 295 296 305 306 308 303 293 301 296 294 291 286 277 273 275 284 286 285 286 288 292 300 305
269 265 261 263 269 273 276 281 281 281 279 277 283 285 287 285 284 284 284 280 282 290 295 300 298 298 303 301 301 295 287 274 272 274 282 283 285 286 288 290 294 298
277 272 265 265 268 266 266 272 273 278 285 288 293 295 294 293 292 291 294 291 290 289 280 285 290 285 295 305 303 296 294 280 276 279 284 285 283 283 280 282 288 292